| time (UTC) | temp F | wind direction | speed MPH | gust MPH | rain 1hr in | rain 24hr in | rain mn in | humidity % | barometer mb |
| 20260505075059 | 59 | 231 | 3.0 | 9.0 | 0.00 | 0.00 | 0.00 | 58 | 1006.8 |
| 20260505074558 | 59 | 243 | 2.0 | 7.0 | 0.00 | 0.00 | 0.00 | 58 | 1006.9 |
| 20260505074059 | 59 | 238 | 2.0 | 7.0 | 0.00 | 0.00 | 0.00 | 58 | 1006.9 |
| 20260505073559 | 59 | 259 | 2.0 | 7.0 | 0.00 | 0.00 | 0.00 | 58 | 1006.7 |
| 20260505073100 | 60 | 213 | 3.0 | 7.0 | 0.00 | 0.00 | 0.00 | 57 | 1006.9 |
| 20260505072601 | 60 | 227 | 2.0 | 10.0 | 0.00 | 0.00 | 0.00 | 57 | 1006.7 |
| 20260505072058 | 60 | 226 | 3.0 | 10.0 | 0.00 | 0.00 | 0.00 | 56 | 1006.8 |
| 20260505071600 | 59 | 180 | 3.0 | 8.0 | 0.00 | 0.00 | 0.00 | 58 | 1006.8 |
| 20260505071100 | 59 | 279 | 2.0 | 5.0 | 0.00 | 0.00 | 0.00 | 59 | 1007.0 |
| 20260505070600 | 59 | 220 | 1.0 | 7.0 | 0.00 | 0.00 | 0.00 | 58 | 1006.9 |
| 20260505065559 | 59 | 212 | 3.0 | 7.0 | 0.00 | 0.00 | 0.00 | 57 | 1007.0 |
| 20260505065058 | 59 | 228 | 2.0 | 8.0 | 0.00 | 0.00 | 0.00 | 57 | 1007.0 |
| 20260505064559 | 60 | 201 | 2.0 | 9.0 | 0.00 | 0.00 | 0.00 | 57 | 1007.0 |
| 20260505064058 | 59 | 231 | 3.0 | 9.0 | 0.00 | 0.00 | 0.00 | 57 | 1007.1 |
| 20260505063559 | 59 | 0 | 3.0 | 9.0 | 0.00 | 0.00 | 0.00 | 58 | 1007.0 |
| 20260505063059 | 58 | 226 | 2.0 | 8.0 | 0.00 | 0.00 | 0.00 | 60 | 1007.0 |
| 20260505062558 | 58 | 270 | 2.0 | 8.0 | 0.00 | 0.00 | 0.00 | 61 | 1007.0 |
| 20260505062058 | 58 | 184 | 1.0 | 6.0 | 0.00 | 0.00 | 0.00 | 60 | 1007.0 |
| 20260505061610 | 58 | 245 | 2.0 | 6.0 | 0.00 | 0.00 | 0.00 | 61 | 1006.9 |
| 20260505061058 | 58 | 188 | 2.0 | 6.0 | 0.00 | 0.00 | 0.00 | 59 | 1007.0 |
| 20260505060559 | 58 | 200 | 1.0 | 6.0 | 0.00 | 0.00 | 0.00 | 59 | 1006.9 |
| 20260505055559 | 58 | 150 | 1.0 | 7.0 | 0.00 | 0.00 | 0.00 | 58 | 1007.1 |
| 20260505055059 | 58 | 255 | 2.0 | 7.0 | 0.00 | 0.00 | 0.00 | 58 | 1007.1 |
| 20260505054600 | 58 | 238 | 2.0 | 9.0 | 0.00 | 0.00 | 0.00 | 59 | 1007.1 |
| 20260505054059 | 59 | 0 | 2.0 | 9.0 | 0.00 | 0.00 | 0.00 | 57 | 1007.2 |
| 20260505053558 | 59 | 209 | 2.0 | 8.0 | 0.00 | 0.00 | 0.00 | 57 | 1007.1 |
| 20260505053107 | 59 | 260 | 2.0 | 8.0 | 0.00 | 0.00 | 0.00 | 57 | 1007.2 |
| 20260505052602 | 59 | 256 | 3.0 | 8.0 | 0.00 | 0.00 | 0.00 | 55 | 1007.1 |
| 20260505052058 | 59 | 249 | 2.0 | 8.0 | 0.00 | 0.00 | 0.00 | 57 | 1007.1 |
| 20260505051558 | 59 | 259 | 2.0 | 6.0 | 0.00 | 0.00 | 0.00 | 56 | 1007.0 |
| 20260505051058 | 59 | 252 | 2.0 | 11.0 | 0.00 | 0.00 | 0.00 | 57 | 1007.1 |
| 20260505050557 | 58 | 205 | 2.0 | 11.0 | 0.00 | 0.00 | 0.00 | 56 | 1007.1 |
| 20260505041601 | 55 | 0 | 1.0 | 9.0 | 0.00 | 0.00 | 0.00 | 69 | 1007.1 |
| 20260505041058 | 52 | 0 | 2.0 | 9.0 | 0.00 | 0.00 | 0.00 | 75 | 1007.1 |
| 20260505040606 | 50 | 0 | 1.0 | 7.0 | 0.00 | 0.00 | 0.00 | 80 | 1007.1 |
| 20260505040104 | 49 | 224 | 2.0 | 6.0 | 0.00 | 0.00 | 0.00 | 82 | 1007.0 |
| 20260505035602 | 48 | 0 | 0.0 | 5.0 | 0.00 | 0.00 | 0.00 | 84 | 1007.0 |
| 20260505035058 | 47 | 269 | 1.0 | 5.0 | 0.00 | 0.00 | 0.00 | 85 | 1006.9 |
| 20260505034601 | 47 | 0 | 0.0 | 4.0 | 0.00 | 0.00 | 0.00 | 86 | 1007.0 |
| 20260505034102 | 46 | 186 | 0.0 | 5.0 | 0.00 | 0.00 | 0.00 | 86 | 1007.0 |
| 20260505033559 | 46 | 197 | 0.0 | 5.0 | 0.00 | 0.00 | 0.00 | 86 | 1007.0 |
| 20260505033116 | 46 | 310 | 0.0 | 2.0 | 0.00 | 0.00 | 0.00 | 86 | 1007.0 |
| 20260505032559 | 47 | 0 | 0.0 | 2.0 | 0.00 | 0.00 | 0.00 | 86 | 1007.1 |
| 20260505032101 | 47 | 0 | 0.0 | 2.0 | 0.00 | 0.00 | 0.00 | 86 | 1007.0 |
| 20260505031559 | 47 | 0 | 0.0 | 1.0 | 0.00 | 0.00 | 0.00 | 86 | 1007.0 |
| 20260505031102 | 47 | 261 | 0.0 | 1.0 | 0.00 | 0.00 | 0.00 | 85 | 1007.1 |
| 20260505030603 | 48 | 0 | 0.0 | 1.0 | 0.00 | 0.00 | 0.00 | 85 | 1007.1 |
| 20260505030100 | 48 | 0 | 0.0 | 1.0 | 0.00 | 0.00 | 0.00 | 85 | 1007.0 |
| 20260505025559 | 48 | 0 | 0.0 | 1.0 | 0.00 | 0.00 | 0.00 | 85 | 1007.1 |
| 20260505025059 | 48 | 0 | 0.0 | 2.0 | 0.00 | 0.00 | 0.00 | 84 | 1007.2 |
| 20260505024609 | 48 | 0 | 0.0 | 2.0 | 0.00 | 0.00 | 0.00 | 83 | 1007.2 |
| 20260505024102 | 49 | 0 | 0.0 | 1.0 | 0.00 | 0.00 | 0.00 | 81 | 1007.2 |
| 20260505023602 | 50 | 142 | 0.0 | 1.0 | 0.00 | 0.00 | 0.00 | 79 | 1007.2 |
| 20260505023108 | 50 | 0 | 0.0 | 1.0 | 0.00 | 0.00 | 0.00 | 79 | 1007.3 |
| 20260505022559 | 50 | 0 | 0.0 | 1.0 | 0.00 | 0.00 | 0.00 | 80 | 1007.3 |
| 20260505022102 | 50 | 0 | 0.0 | 2.0 | 0.00 | 0.00 | 0.00 | 79 | 1007.2 |
| 20260505021601 | 50 | 245 | 0.0 | 2.0 | 0.00 | 0.00 | 0.00 | 78 | 1007.3 |
| 20260505021101 | 51 | 0 | 0.0 | 1.0 | 0.00 | 0.00 | 0.00 | 76 | 1007.2 |
| 20260505020602 | 53 | 0 | 0.0 | 2.0 | 0.00 | 0.00 | 0.00 | 74 | 1007.2 |
| 20260505015559 | 52 | 0 | 0.0 | 2.0 | 0.00 | 0.00 | 0.00 | 75 | 1007.2 |
| 20260505015059 | 54 | 0 | 0.0 | 2.0 | 0.00 | 0.00 | 0.00 | 72 | 1007.2 |
| 20260505014603 | 53 | 275 | 0.0 | 2.0 | 0.00 | 0.00 | 0.00 | 73 | 1007.2 |
| 20260505014059 | 53 | 261 | 0.0 | 1.0 | 0.00 | 0.00 | 0.00 | 74 | 1007.1 |
| 20260505013559 | 53 | 0 | 0.0 | 1.0 | 0.00 | 0.00 | 0.00 | 75 | 1007.2 |
| 20260505013059 | 53 | 0 | 0.0 | 2.0 | 0.00 | 0.00 | 0.00 | 75 | 1007.2 |
| 20260505012559 | 53 | 0 | 0.0 | 2.0 | 0.00 | 0.00 | 0.00 | 73 | 1007.1 |
| 20260505012059 | 53 | 0 | 0.0 | 2.0 | 0.00 | 0.00 | 0.00 | 73 | 1007.0 |
| 20260505011601 | 54 | 0 | 0.0 | 1.0 | 0.00 | 0.00 | 0.00 | 72 | 1007.0 |
| 20260505011100 | 54 | 0 | 0.0 | 1.0 | 0.00 | 0.00 | 0.00 | 71 | 1007.0 |
| 20260505010559 | 54 | 0 | 0.0 | 1.0 | 0.00 | 0.00 | 0.00 | 70 | 1007.0 |
| 20260505005600 | 54 | 0 | 0.0 | 1.0 | 0.00 | 0.00 | 0.00 | 70 | 1006.8 |
| 20260505005100 | 55 | 0 | 0.0 | 1.0 | 0.00 | 0.00 | 0.00 | 69 | 1006.8 |
| 20260505004601 | 55 | 0 | 0.0 | 2.0 | 0.00 | 0.00 | 0.00 | 68 | 1006.8 |
| 20260505004102 | 56 | 0 | 0.0 | 2.0 | 0.00 | 0.00 | 0.00 | 69 | 1006.8 |
| 20260505003559 | 56 | 276 | 0.0 | 2.0 | 0.00 | 0.00 | 0.00 | 66 | 1006.8 |
| 20260505003102 | 57 | 0 | 0.0 | 3.0 | 0.00 | 0.00 | 0.00 | 65 | 1006.8 |
| 20260505002559 | 57 | 0 | 0.0 | 3.0 | 0.00 | 0.00 | 0.00 | 65 | 1006.6 |
| 20260505002059 | 58 | 296 | 1.0 | 4.0 | 0.00 | 0.00 | 0.00 | 65 | 1006.6 |
| 20260505001601 | 58 | 303 | 2.0 | 4.0 | 0.00 | 0.00 | 0.00 | 63 | 1006.6 |
| 20260505001101 | 58 | 302 | 2.0 | 4.0 | 0.00 | 0.00 | 0.00 | 63 | 1006.5 |
| 20260505000558 | 59 | 300 | 2.0 | 4.0 | 0.00 | 0.00 | 0.00 | 62 | 1006.6 |
| 20260505000104 | 59 | 300 | 1.0 | 4.0 | 0.00 | 0.00 | 0.00 | 62 | 1006.4 |
| 20260504235559 | 59 | 303 | 2.0 | 4.0 | 0.00 | 0.00 | 0.00 | 61 | 1006.3 |
| 20260504235108 | 60 | 307 | 2.0 | 4.0 | 0.00 | 0.00 | 0.00 | 61 | 1006.2 |
| 20260504234629 | 60 | 296 | 2.0 | 4.0 | 0.00 | 0.00 | 0.00 | 59 | 1006.2 |
| 20260504234101 | 60 | 298 | 1.0 | 5.0 | 0.00 | 0.00 | 0.00 | 60 | 1006.1 |
| 20260504233601 | 61 | 300 | 2.0 | 5.0 | 0.00 | 0.00 | 0.00 | 58 | 1006.2 |
| 20260504233101 | 62 | 303 | 1.0 | 4.0 | 0.00 | 0.00 | 0.00 | 56 | 1006.1 |
| 20260504232559 | 62 | 125 | 1.0 | 4.0 | 0.00 | 0.00 | 0.00 | 56 | 1005.9 |
| 20260504232059 | 62 | 306 | 1.0 | 5.0 | 0.00 | 0.00 | 0.00 | 55 | 1005.9 |
| 20260504231606 | 63 | 0 | 1.0 | 8.0 | 0.00 | 0.00 | 0.00 | 51 | 1005.8 |
| 20260504231059 | 64 | 0 | 3.0 | 8.0 | 0.00 | 0.00 | 0.00 | 49 | 1005.8 |
| 20260504230602 | 63 | 275 | 0.0 | 4.0 | 0.00 | 0.00 | 0.00 | 52 | 1005.7 |
| 20260504225559 | 64 | 0 | 2.0 | 7.0 | 0.00 | 0.00 | 0.00 | 53 | 1005.7 |
| 20260504225101 | 64 | 181 | 2.0 | 9.0 | 0.00 | 0.00 | 0.00 | 48 | 1005.5 |
| 20260504224608 | 63 | 0 | 3.0 | 9.0 | 0.00 | 0.00 | 0.00 | 53 | 1005.5 |
| 20260504224059 | 62 | 261 | 0.0 | 5.0 | 0.00 | 0.00 | 0.00 | 55 | 1005.6 |
| 20260504223559 | 63 | 203 | 0.0 | 3.0 | 0.00 | 0.00 | 0.00 | 53 | 1005.4 |
| 20260504223101 | 63 | 287 | 0.0 | 3.0 | 0.00 | 0.00 | 0.00 | 55 | 1005.4 |
| 20260504222559 | 64 | 0 | 1.0 | 3.0 | 0.00 | 0.00 | 0.00 | 53 | 1005.5 |
| 20260504222102 | 65 | 0 | 1.0 | 8.0 | 0.00 | 0.00 | 0.00 | 51 | 1005.3 |
| 20260504221606 | 67 | 0 | 2.0 | 8.0 | 0.00 | 0.00 | 0.00 | 42 | 1005.4 |
| 20260504221100 | 67 | 172 | 3.0 | 8.0 | 0.00 | 0.00 | 0.00 | 43 | 1005.4 |
| 20260504220559 | 66 | 181 | 2.0 | 7.0 | 0.00 | 0.00 | 0.00 | 43 | 1005.5 |
| 20260504220059 | 66 | 129 | 1.0 | 8.0 | 0.00 | 0.00 | 0.00 | 45 | 1005.4 |
| 20260504215559 | 67 | 166 | 1.0 | 8.0 | 0.00 | 0.00 | 0.00 | 48 | 1005.5 |
| 20260504215059 | 67 | 199 | 3.0 | 11.0 | 0.00 | 0.00 | 0.00 | 42 | 1005.5 |
| 20260504214604 | 67 | 201 | 3.0 | 11.0 | 0.00 | 0.00 | 0.00 | 42 | 1005.5 |
| 20260504214059 | 67 | 158 | 4.0 | 12.0 | 0.00 | 0.00 | 0.00 | 44 | 1005.5 |
| 20260504213559 | 68 | 188 | 5.0 | 15.0 | 0.00 | 0.00 | 0.00 | 41 | 1005.4 |
| 20260504213105 | 68 | 141 | 4.0 | 15.0 | 0.00 | 0.00 | 0.00 | 42 | 1005.3 |
| 20260504212558 | 68 | 0 | 7.0 | 15.0 | 0.00 | 0.00 | 0.00 | 41 | 1005.4 |
| 20260504212059 | 68 | 179 | 4.0 | 10.0 | 0.00 | 0.00 | 0.00 | 44 | 1005.3 |
| 20260504211557 | 68 | 23 | 2.0 | 6.0 | 0.00 | 0.00 | 0.00 | 41 | 1005.3 |
| 20260504211056 | 68 | 184 | 3.0 | 6.0 | 0.00 | 0.00 | 0.00 | 40 | 1005.4 |
| 20260504210558 | 68 | 206 | 2.0 | 13.0 | 0.00 | 0.00 | 0.00 | 41 | 1005.5 |
| 20260504210105 | 68 | 341 | 2.0 | 13.0 | 0.00 | 0.00 | 0.00 | 43 | 1005.5 |
| 20260504205602 | 68 | 146 | 6.0 | 13.0 | 0.00 | 0.00 | 0.00 | 42 | 1005.5 |
| 20260504205103 | 68 | 191 | 5.0 | 11.0 | 0.00 | 0.00 | 0.00 | 43 | 1005.6 |
| 20260504204637 | 68 | 166 | 4.0 | 17.0 | 0.00 | 0.00 | 0.00 | 44 | 1005.6 |
| 20260504204059 | 68 | 178 | 4.0 | 17.0 | 0.00 | 0.00 | 0.00 | 44 | 1005.6 |
| 20260504203559 | 68 | 248 | 4.0 | 13.0 | 0.00 | 0.00 | 0.00 | 43 | 1005.6 |
| 20260504203057 | 68 | 159 | 2.0 | 13.0 | 0.00 | 0.00 | 0.00 | 41 | 1005.6 |
| 20260504202559 | 68 | 203 | 6.0 | 13.0 | 0.00 | 0.00 | 0.00 | 42 | 1005.7 |
| 20260504202100 | 68 | 182 | 4.0 | 9.0 | 0.00 | 0.00 | 0.00 | 41 | 1005.8 |
| 20260504201559 | 69 | 105 | 2.0 | 13.0 | 0.00 | 0.00 | 0.00 | 42 | 1005.8 |
| 20260504201059 | 68 | 191 | 2.0 | 13.0 | 0.00 | 0.00 | 0.00 | 40 | 1005.9 |
| 20260504200559 | 68 | 155 | 2.0 | 12.0 | 0.00 | 0.00 | 0.00 | 43 | 1005.8 |
| 20260504195559 | 67 | 215 | 5.0 | 20.0 | 0.00 | 0.00 | 0.00 | 43 | 1005.9 |
| 20260504195103 | 67 | 169 | 10.0 | 20.0 | 0.00 | 0.00 | 0.00 | 44 | 1005.9 |
| 20260504194600 | 68 | 175 | 6.0 | 19.0 | 0.00 | 0.00 | 0.00 | 43 | 1005.9 |
| 20260504194101 | 68 | 174 | 3.0 | 20.0 | 0.00 | 0.00 | 0.00 | 45 | 1005.9 |
| 20260504193601 | 68 | 199 | 8.0 | 20.0 | 0.00 | 0.00 | 0.00 | 42 | 1006.0 |
| 20260504193102 | 68 | 280 | 4.0 | 17.0 | 0.00 | 0.00 | 0.00 | 43 | 1006.2 |
| 20260504192559 | 68 | 181 | 2.0 | 17.0 | 0.00 | 0.00 | 0.00 | 44 | 1006.3 |
| 20260504192059 | 67 | 161 | 5.0 | 11.0 | 0.00 | 0.00 | 0.00 | 44 | 1006.1 |
| 20260504191559 | 67 | 218 | 4.0 | 11.0 | 0.00 | 0.00 | 0.00 | 43 | 1006.1 |
| 20260504191100 | 68 | 181 | 2.0 | 16.0 | 0.00 | 0.00 | 0.00 | 42 | 1006.3 |
| 20260504190600 | 67 | 154 | 6.0 | 16.0 | 0.00 | 0.00 | 0.00 | 42 | 1006.2 |
| 20260504185558 | 67 | 143 | 3.0 | 17.0 | 0.00 | 0.00 | 0.00 | 45 | 1006.4 |
| 20260504185100 | 67 | 127 | 6.0 | 20.0 | 0.00 | 0.00 | 0.00 | 43 | 1006.4 |
| 20260504184606 | 67 | 156 | 8.0 | 20.0 | 0.00 | 0.00 | 0.00 | 43 | 1006.4 |
| 20260504184059 | 67 | 252 | 4.0 | 15.0 | 0.00 | 0.00 | 0.00 | 42 | 1006.1 |
| 20260504183559 | 67 | 174 | 4.0 | 12.0 | 0.00 | 0.00 | 0.00 | 43 | 1006.3 |
| 20260504183109 | 68 | 192 | 3.0 | 12.0 | 0.00 | 0.00 | 0.00 | 47 | 1006.4 |
| 20260504182559 | 68 | 15 | 6.0 | 15.0 | 0.00 | 0.00 | 0.00 | 40 | 1006.5 |
| 20260504182059 | 68 | 0 | 3.0 | 15.0 | 0.00 | 0.00 | 0.00 | 53 | 1006.4 |
| 20260504181602 | 67 | 139 | 7.0 | 15.0 | 0.00 | 0.00 | 0.00 | 45 | 1006.2 |
| 20260504181059 | 67 | 179 | 3.0 | 14.0 | 0.00 | 0.00 | 0.00 | 44 | 1006.1 |
| 20260504180600 | 67 | 188 | 3.0 | 13.0 | 0.00 | 0.00 | 0.00 | 46 | 1006.2 |
| 20260504175602 | 67 | 173 | 3.0 | 8.0 | 0.00 | 0.00 | 0.00 | 41 | 1006.2 |
| 20260504175059 | 66 | 0 | 1.0 | 14.0 | 0.00 | 0.00 | 0.00 | 46 | 1006.4 |
| 20260504174559 | 66 | 0 | 6.0 | 14.0 | 0.00 | 0.00 | 0.00 | 44 | 1006.4 |
| 20260504174059 | 67 | 266 | 4.0 | 14.0 | 0.00 | 0.00 | 0.00 | 45 | 1006.8 |
| 20260504173559 | 66 | 172 | 2.0 | 14.0 | 0.00 | 0.00 | 0.00 | 48 | 1006.6 |
| 20260504173102 | 66 | 183 | 7.0 | 14.0 | 0.00 | 0.00 | 0.00 | 44 | 1006.6 |
| 20260504172602 | 65 | 313 | 2.0 | 13.0 | 0.00 | 0.00 | 0.00 | 45 | 1006.8 |
| 20260504172059 | 65 | 183 | 5.0 | 15.0 | 0.00 | 0.00 | 0.00 | 45 | 1007.1 |
| 20260504171602 | 65 | 249 | 5.0 | 19.0 | 0.00 | 0.00 | 0.00 | 45 | 1006.9 |
| 20260504171101 | 65 | 37 | 5.0 | 19.0 | 0.00 | 0.00 | 0.00 | 47 | 1007.1 |
| 20260504170602 | 65 | 155 | 7.0 | 19.0 | 0.00 | 0.00 | 0.00 | 45 | 1006.9 |
| 20260504160133 | 61 | 171 | 3.0 | 18.0 | 0.00 | 0.00 | 0.00 | 50 | 1007.6 |
| 20260504151055 | 58 | 186 | 4.0 | 12.0 | 0.00 | 0.00 | 0.00 | 51 | 1008.1 |
| 20260504150602 | 58 | 171 | 5.0 | 12.0 | 0.00 | 0.00 | 0.00 | 49 | 1008.2 |
| 20260504150105 | 58 | 186 | 5.0 | 12.0 | 0.00 | 0.00 | 0.00 | 49 | 1008.1 |
| 20260504141100 | 58 | 196 | 4.0 | 11.0 | 0.00 | 0.00 | 0.00 | 49 | 1008.2 |
| 20260504140559 | 57 | 188 | 5.0 | 11.0 | 0.00 | 0.00 | 0.00 | 49 | 1008.1 |
| 20260504140110 | 56 | 165 | 6.0 | 12.0 | 0.00 | 0.00 | 0.00 | 52 | 1008.2 |
| 20260504130603 | 55 | 271 | 4.0 | 14.0 | 0.00 | 0.00 | 0.00 | 52 | 1008.3 |
| 20260504130103 | 55 | 130 | 2.0 | 13.0 | 0.00 | 0.00 | 0.00 | 51 | 1008.4 |
| 20260504110559 | 48 | 0 | 0.0 | 4.0 | 0.00 | 0.00 | 0.00 | 79 | 1008.7 |
| 20260504110104 | 47 | 134 | 0.0 | 4.0 | 0.00 | 0.00 | 0.00 | 80 | 1008.6 |
| 20260504100602 | 45 | 295 | 0.0 | 3.0 | 0.00 | 0.00 | 0.00 | 81 | 1008.6 |
| 20260504081559 | 46 | 248 | 1.0 | 5.0 | 0.00 | 0.00 | 0.00 | 79 | 1009.2 |
| 20260504081058 | 46 | 207 | 1.0 | 8.0 | 0.00 | 0.00 | 0.00 | 79 | 1009.1 |
| 20260504080557 | 46 | 173 | 1.0 | 8.0 | 0.00 | 0.00 | 0.00 | 79 | 1009.1 |